Weather History for PADU - November, 2012

Change the Weather History Date:

Friday, November 23, 2012

  Actual Average Record
Temperature  
Mean Temperature 31 °F -  
Max Temperature 32 °F 40 °F 48 °F (2001)
Min Temperature 30 °F 29 °F 23 °F (1986)
Degree Days  
Heating Degree Days 34    
Moisture  
Dew Point 21 °F    
Average Humidity 67    
Maximum Humidity 72    
Minimum Humidity 59    
Precipitation  
Precipitation 0.00 in - - ()
Sea Level Pressure  
Sea Level Pressure 29.88 in    
Wind  
Wind Speed 13 mph (NNW)    
Max Wind Speed 16 mph    
Max Gust Speed 25 mph    
Visibility 10 miles    
Events      
Averages and records for this station are not official NWS values.
T = Trace of Precipitation, MM = Missing Value Source: NWS Daily Summary

Daily Weather History Graph

Daily Weather History Graph

Search for Another Location

Airport or City:

Trip Planner

Search our weather history database for the weather conditions in past years. The results will help you decide how hot, cold, wet, or windy it might be!

Date:

Astronomy

Nov. 23, 2012 Rise Set
Actual Time 9:49 AM AKST 5:55 PM AKST
Civil Twilight 9:08 AM AKST 6:36 PM AKST
Nautical Twilight 8:24 AM AKST 7:20 PM AKST
Astronomical Twilight 7:42 AM AKST 8:03 PM AKST
Moon 3:47 PM AKST (11/23) 4:46 AM AKST (11/23)
Length of Visible Light 9h 28m
Length of Day
8h 06m
Waxing Gibbous, 81% of the Moon is Illuminated
Nov 23
Waxing Gibbous
Nov 28
Full
Dec 6
Last Quarter
Dec 12
New
Dec 19
First Quarter

Hourly Weather History & Observations

Time (AKST) Temp. Windchill Dew Point Humidity Pressure Visibility Wind Dir Wind Speed Gust Speed Precip Events Conditions
12:52 AM 32.0 °F 22.5 °F 23.0 °F 69% 29.90 in 10.0 mi NW 12.7 mph - N/A   Overcast
12:56 AM 32.0 °F 23.0 °F 23.0 °F 69% 29.92 in 10.0 mi NNW 11.5 mph - N/A   Overcast
1:10 AM 32.0 °F 21.2 °F 23.0 °F 69% 29.89 in 10.0 mi NNW 16.1 mph - N/A   Overcast
1:56 AM 32.0 °F 22.5 °F 23.0 °F 69% 29.91 in 10.0 mi NNW 12.7 mph - N/A   Overcast
2:56 AM 32.0 °F 22.5 °F 21.9 °F 66% 29.91 in 10.0 mi WNW 12.7 mph - N/A   Overcast
3:56 AM 30.9 °F 20.7 °F 21.9 °F 69% 29.90 in 10.0 mi North 13.8 mph 17.3 mph N/A   Overcast
4:56 AM 32.0 °F 22.1 °F 21.9 °F 66% 29.90 in 10.0 mi NNW 13.8 mph - N/A   Overcast
5:56 AM 30.9 °F 22.8 °F 19.9 °F 64% 29.89 in 10.0 mi NNW 9.2 mph - N/A   Overcast
6:15 AM 32.0 °F 23.6 °F 21.2 °F 64% 29.87 in 10.0 mi NNW 10.4 mph - N/A   Overcast
6:56 AM 30.9 °F 21.7 °F 21.9 °F 69% 29.88 in 10.0 mi NNW 11.5 mph - N/A   Overcast
7:12 AM 32.0 °F 23.0 °F 21.2 °F 64% 29.87 in 10.0 mi NNW 11.5 mph - N/A   Overcast
7:39 AM 32.0 °F 22.1 °F 23.0 °F 69% 29.86 in 10.0 mi NNW 13.8 mph 19.6 mph N/A   Overcast
7:56 AM 32.0 °F 22.5 °F 21.9 °F 66% 29.88 in 10.0 mi NNW 12.7 mph 20.7 mph N/A   Overcast
8:56 AM 32.0 °F 22.5 °F 21.9 °F 66% 29.88 in 10.0 mi NW 12.7 mph 21.9 mph N/A   Overcast
9:56 AM 30.9 °F 21.2 °F 21.0 °F 67% 29.88 in 10.0 mi North 12.7 mph - N/A   Overcast
11:56 AM 30.9 °F 21.7 °F 21.9 °F 69% 29.88 in 10.0 mi North 11.5 mph - N/A   Overcast
12:18 PM 30.2 °F 20.2 °F 19.4 °F 64% 29.87 in 10.0 mi North 12.7 mph - N/A   Overcast
12:56 PM 30.9 °F 22.2 °F 21.0 °F 67% 29.89 in 10.0 mi NW 10.4 mph - N/A   Overcast
1:56 PM 30.9 °F 21.7 °F 19.9 °F 64% 29.88 in 10.0 mi NNW 11.5 mph - N/A   Overcast
2:21 PM 30.2 °F 20.2 °F 21.2 °F 69% 29.85 in 10.0 mi NNW 12.7 mph - N/A   Overcast
2:43 PM 30.2 °F 20.2 °F 19.4 °F 64% 29.85 in 10.0 mi NNW 12.7 mph - N/A   Overcast
2:56 PM 30.9 °F 22.8 °F 19.9 °F 64% 29.86 in 10.0 mi NNW 9.2 mph 19.6 mph N/A   Overcast
3:56 PM 30.9 °F 20.7 °F 18.0 °F 59% 29.86 in 10.0 mi North 13.8 mph 18.4 mph N/A   Overcast
4:56 PM 30.9 °F 21.2 °F 19.9 °F 64% 29.86 in 10.0 mi NNW 12.7 mph - N/A   Overcast
5:56 PM 32.0 °F 24.2 °F 21.9 °F 66% 29.86 in 10.0 mi WNW 9.2 mph - N/A   Overcast
6:56 PM 30.9 °F 21.7 °F 21.0 °F 67% 29.86 in 10.0 mi North 11.5 mph 19.6 mph N/A   Overcast
7:56 PM 32.0 °F 21.6 °F 21.9 °F 66% 29.85 in 10.0 mi NNW 15.0 mph - N/A   Overcast
8:56 PM 30.9 °F 20.7 °F 21.9 °F 69% 29.86 in 10.0 mi North 13.8 mph - N/A   Overcast
9:56 PM 30.9 °F 21.2 °F 23.0 °F 72% 29.86 in 10.0 mi North 12.7 mph 25.3 mph N/A   Overcast
10:56 PM 32.0 °F 23.0 °F 23.0 °F 69% 29.86 in 10.0 mi NW 11.5 mph 17.3 mph N/A   Overcast
11:56 PM 30.9 °F 20.2 °F 23.0 °F 72% 29.87 in 10.0 mi North 15.0 mph - N/A   Overcast